CZ-6A DEB, 61160

Orbit data source: Space-Track

CZ-6A DEB, 61160 is space debris in LEO originally from a launch on Tue, 06 Aug 2024 UTC launched from the Taiyaun Space Center, China (TSC). Debris objects in space refer to the collection of defunct objects orbiting the Earth. Examples of debris include non-operational satellites, rocket bodies, and fragments generated from explosions, collisions, or faulty payload assembly.

Loading next visibility...
Identifier
61160, 2024-140RE
Orbit
LEO
Country
Flag of CNCN / PRC
Related business
Manufacturer
SAST
Mission
Spacecraft
Bus & Motor
Unknown
Mass
Unknown
Launch date (UTC)
2024-08-06 (2 years ago)
Launch vehicle
Unknown
Launch site
Taiyaun Space Center, China (TSC)
Object type
Payload
Rocket body
Debris
Shape & HBR
Unknown shape, 1.1 m
Radar Cross Section
Small (<0.1 m²)

Expand to show TLE details & history
Last TLE update: 2 months ago

TLE from 2 months ago
0 CZ-6A DEB
1 61160U 24140RE  26056.06462595  .00004518  00000-0  18484-2 0  9996
2 61160  88.9779 285.7518 0056992 211.5247 148.2528 14.26216317 78472
Epoch: 2026-02-25T01:33Z
TLE epoch observation values (Epoch: 2026-02-25T01:33:03.682Z)
Latitude
-0.00001°
Longitude
107.5513°
Altitude
842.35 km
Speed
7.413 km/s
True Right ascension
19h 03m 00s
True Declination
0° 00' 00"
Sunlit
Object was in daylight at epoch
Visualization orbit readout
Latitude
Unknown
Longitude
Unknown
Altitude
Unknown
Speed
Unknown
Apparent Right ascension
Unknown
Apparent Declination
Unknown
Sunlit
N/A
Visualization observer readout
Local Sidereal Time
08:22:41
Azimuth
Unknown
Elevation
Unknown
Doppler factor
Unknown
Orbital elements
Apogee altitude
842.266 km
Perigee altitude
760.431 km
Semi-major axis
7,179.485 km
Eccentricity
0.0057
Inclination
88.9779°
RAAN
285.7518°
Arg. of periapsis
211.5247°
True anomaly
148.59436°
Mean anomaly
148.2528°
Eccentric anomaly
148.42379°
Mean motion
3.56782 °/min
Orbital period
100.9 mins
BSTAR
0.0018484
Loading maneuver chart data...
Computing Atmospheric mass density...
Loading historical data...
Loading historical data...
Loading historical data...
Loading historical data...
Loading historical data...
Loading historical data...
Loading historical data...

Documentation

Showing up to 5 results
|